sat.trackr.live / text

‹ back to catalog

STARLINK-5966

NORAD 56919 · 2023-083AV

PAYLOAD ACTIVE UNKNOWN

§ Identity

Operator
Country
US
Launch date
2023-06-12
Launch site
AFETR
Launch vehicle
Mass (kg)
RCS (m²)

Purposes: comms

External: N2YO · Heavens-Above · Gunter

§ Orbital elements

Epoch: 2026-09-19T18:23:36.007008Z

Period
94.27 min
Inclination
43.0014°
Eccentricity
0.0001812
Mean motion
15.27579557 rev/d
Perigee alt
481.8 km
Apogee alt
484.3 km
Semi-major
6,861.2 km
B*
3.0616e-5
RAAN
54.2965°
Arg perigee
258.8975°
Mean anomaly
101.1673°
Rev number
18,148

§ Raw data

STARLINK-59661 56919U 23083AV  26262.76638897  .00000580  00000+0  30616-4 0  99902 56919  43.0014  54.2965 0001812 258.8975 101.1673 15.27579557181485

JSON: /api/v1/satellites/56919 · /tle

For live sub-satellite position, see the globe view (requires WebGL).

§ Visibility from observer

Set your observer location to see the next 7 days of passes ≥ 10°. The values pass through the URL so the page stays shareable.

No JS? Fill the form by hand. The geolocation button needs JavaScript.